Terminal Aerodrome Forecast
Issued by NWS Charleston, WV

Current Version | Previous Version | Graphics & Text | Print | Product List | Glossary On
Versions: 1 2 3 4 5 6 7 8 9 10 11 12 13 14 15 16 17 18 19 20 21 22 23 24 25
000
FTUS41 KRLX 240200 AAA
TAFHTS
TAF AMD
KHTS 240247Z 2403/2424 13004KT 4SM SHRA BR OVC035
     FM240500 VRB03KT 2SM SHRA BR OVC025
     FM241000 VRB03KT 5SM SHRA BKN035
     FM241200 VRB03KT P6SM BKN035
     FM241500 16007KT P6SM BKN040
     FM241800 17011G19KT 3SM SHRA BR VCTS BKN040CB
     FM242100 19012G23KT 6SM SHRA BR BKN035
     FM242300 23018G31KT P6SM BKN025=

USA.gov is the U.S. government's official web portal to all federal, state and local government web resources and services.